Regional Weather Roundup
Issued by NWS Sterling, VA

Home | Current Version | Previous Version | Graphics & Text | Print | Product List | Glossary On
Versions: 1 2 3 4 5 6 7 8 9 10 11 12 13 14 15 16 17 18 19 20 21 22 23 24 25 26 27 28 29 30 31 32 33 34 35 36 37 38 39 40 41 42 43 44 45 46 47 48 49 50
000
ASUS41 KLWX 291210
RWRLWX

REGIONAL WEATHER ROUNDUP
NATIONAL WEATHER SERVICE BALTIMORE MD/WASHINGTON DC
800 AM EDT MON SEP 29 2014

Note: "FAIR" indicates few or no clouds below 12,000 feet
with no significant weather and/or obstructions to visibility.
 TC=TEMPERATURE CELSIUS

 * =Non NWS site. Station does not report precipitation (e.g. rain,
    snow, etc.), thunder, or fog.

DCZ001-MDZ009-015-VAZ040>042-051-053>054-291300-
WASHINGTON METRO

CITY           SKY/WX    TMP DP  RH WIND       PRES   REMARKS
WASHINGTON NAT PTSUNNY   67  61  81 CALM      30.02S
DULLES         CLOUDY    60  59  96 CALM      30.02R
ANDREWS AFB    PTSUNNY   62  61  98 S3        30.01S
QUANTICO       CLOUDY    62  60  93 NW5       30.02F
COLLEGE PARK*  PTSUNNY   61  61 100 CALM      30.01S
LEESBURG*      CLOUDY    61  61 100 CALM      30.03R
MANASSAS*      MOCLDY    59  57  94 SE3       30.02S
GAITHERSBURG*  CLOUDY    61  57  88 CALM      30.05S

$$

MDZ006>007-011-014-291300-
BALTIMORE METRO

CITY           SKY/WX    TMP DP  RH WIND       PRES   REMARKS
BWI AIRPORT    CLOUDY    61  59  93 CALM      30.01S
MD SCIENCE CTR   N/A     67  60  78 MISG      30.01S
MARTIN STATE   PTSUNNY   63  63 100 CALM      30.02S FOG
ANNAPOLIS        N/A    N/A N/A N/A MISG      30.01S
FORT MEADE*    CLOUDY    55  54  94 CALM      30.03S

$$

MDZ012-015-019>023-291300-
MARYLAND EASTERN SHORE

CITY           SKY/WX    TMP DP  RH WIND       PRES   REMARKS
OCEAN CITY     CLOUDY   N/A N/A N/A MISG      30.02S HAZE
SALISBURY      FOG       62  59  90 CALM      30.03R VSB<1/4
BAY BRIDGE AP*   N/A     63  61  94 CALM      30.01S
CAMBRIDGE*     CLOUDY    59  55  88 CALM      30.02R
EASTON*        PTSUNNY   63  63 100 CALM      30.05S

$$

MDZ017>025-291300-
SOUTHERN MARYLAND

CITY           SKY/WX    TMP DP  RH WIND       PRES   REMARKS
PATUXENT RIVER CLOUDY    61  59  93 CALM      30.02S
ST INIGOES     PTSUNNY   61  58  90 CALM      30.02S FOG
LEONARDTOWN*   PTSUNNY   59  57  94 CALM      30.03S

$$

MDZ003>005-291300-
NORTH CENTRAL MARYLAND

CITY           SKY/WX    TMP DP  RH WIND       PRES   REMARKS
FREDERICK*     CLEAR    N/A N/A N/A CALM      30.05R
HAGERSTOWN APT CLOUDY    61  58  90 SE3       30.02R
WESTMINSTER*   CLOUDY    63  57  82 CALM      30.02S

$$

MDZ501>502-291300-
WESTERN MARYLAND

CITY           SKY/WX    TMP DP  RH WIND       PRES   REMARKS
OAKLAND*       MOCLDY    55 N/A N/A W5        30.10F
CUMBERLAND*    NOT AVBL

$$

VAZ025>031-291300-
SHENANDOAH VALLEY

CITY           SKY/WX    TMP DP  RH WIND       PRES   REMARKS
WINCHESTER*    CLOUDY    63  55  77 NW5       30.03R
STAUNTON*      CLOUDY    58  54  89 CALM      30.07R

$$

WVZ021-048>050-054>055-291300-
EASTERN WEST VIRGINIA PANHANDLE

CITY           SKY/WX    TMP DP  RH WIND       PRES   REMARKS
MARTINSBURG    CLOUDY    60  57  89 S3        30.03R FOG
PETERSBURG*    CLOUDY    58  56  92 CALM      30.06R

$$

VAZ036>039-050-291300-
CENTRAL FOOTHILLS

CITY           SKY/WX    TMP DP  RH WIND       PRES   REMARKS
CHARLOTTESVILL CLOUDY    61  58  90 VRB3      30.02R
ORANGE*        CLOUDY    57  55  94 CALM      30.03S

$$

VAZ055>057-291300-
NORTH AND CENTRAL PIEDMONT

CITY           SKY/WX    TMP DP  RH WIND       PRES   REMARKS
FREDERICKSBRG* CLOUDY    61  61 100 CALM      30.01S
STAFFORD*      CLOUDY    57  57 100 CALM      30.06S FOG

$$

NCZ024-NYZ072-PAZ021-071-VAZ022-071-291300-
OTHER REGIONAL OBSERVATIONS

CITY           SKY/WX    TMP DP  RH WIND       PRES   REMARKS
NEW YORK CITY  CLOUDY    68  58  70 W3        30.01S
PHILADELPHIA   CLOUDY    65  61  87 SW5       30.01S
PITTSBURGH     PTCLDY    54  52  93 CALM      30.03S
ROANOKE        CLOUDY    62  59  90 CALM      30.08R
RICHMOND       CLOUDY    66  61  84 CALM      30.03R
RALEIGH        CLOUDY    65  62  90 NE3       30.06R

$$

ANZ530>537-291300-
MARINE OBSERVATIONS

STATION/POSITION TIME  TEMP    WIND        PRES
                       AIR SEA DIR/SP/G
                 (UTC) (F)     (DEG/KT/KT) (MB)
THOMAS PT LIGHT  1200   67 71   CALM  /  1 1017.2F
BALT KEY BRIDGE  1200   83     260/  2/  3 1016.1F
COVE POINT       1200   65     270/  2/  3 1016.4S
LEWISETTA        1200   63 71  230/  3/  3 1016.3F
SOLOMONS ISLAND  1200      72                N/A
PINEY POINT      1200          250/  2/  5   N/A

$$




USA.gov is the U.S. government's official web portal to all federal, state and local government web resources and services.